Location: Archemont
(49.1579°N, 1.7598°E)
Time: 11:51:21
(UTC+00:00)

CZ-4 R/B - Pass Details

Date: 03 February 2023
Orbit: 526 x 586 km, 97.7° (Epoch: 29 March)

Event Time Altitude Azimuth Distance (km) Brightness Sun altitude
Rises 18:01:52 0° 137° (SE) 2,800 4.6 -11.6°
Reaches altitude 10° 18:04:13 10° 126° (SE) 1,897 3.7 -12.0°
Maximum altitude 18:07:46 29° 66° (ENE) 1,079 2.2 -12.5°
Drops below altitude 10° 18:11:18 10° 7° (N) 1,882 3.9 -13.1°
Sets 18:13:37 0° 356° (N) 2,772 4.8 -13.5°
